Regional Weather Roundup
Issued by NWS Grand Forks, ND

Home | Current Version | Previous Version | Text Only | Print | Product List | Glossary On
Versions: 1 2 3 4 5 6 7 8 9 10 11 12 13 14 15 16 17 18 19 20 21 22 23 24 25 26 27 28 29 30 31 32 33 34 35 36 37 38 39 40 41 42 43 44 45 46 47 48 49 50
000
ASUS43 KFGF 102231
RWRFGF
PRAIRIE TO PINES  WEATHER ROUNDUP
NATIONAL WEATHER SERVICE EASTERN NORTH DAKOTA/GRAND FORKS ND
400 PM CST SAT DEC 10 2016

 **SATELLITE DATA USED TO AUGMENT SKY COVER AT AUTOMATED STATIONS**
 *****  WEATHER ACROSS EASTERN NORTH DAKOTA  *****

CITY           SKY/WX    TMP DP  RH WIND       PRES   REMARKS
GRAND FORKS    CLOUDY    -3  -9  75 E8        30.31F WCI -18
GRAND FRKS AFB CLOUDY    -4 -10  75 E5        30.30F WCI -15
DEVILS LAKE    CLOUDY    -6  -9  84 E10       30.21F WCI -23
FARGO          CLOUDY     1  -6  72 NE9       30.29F WCI -14
WAHPETON ARPT  CLOUDY     1  -4  78 E8        30.26F WCI -12
$$

 ***** WEATHER ACROSS CENTRAL AND WESTERN NORTH DAKOTA  *****

CITY           SKY/WX    TMP DP  RH WIND       PRES   REMARKS
BISMARCK       LGT SNOW  -3  -7  82 E13       30.08F FOG     WCI -22
MINOT          CLOUDY    -8 -13  78 E9        30.11F WCI -25
JAMESTOWN      CLOUDY    -1  -7  75 E10       30.17F WCI -17
MINOT AFB      CLOUDY   -10 -15  78 E12       30.11F WCI -30
GARRISON         N/A     -4  -9  79 E12       30.05F WCI -22
WILLISTON      LGT SNOW   2  -5  72 SE10      29.98F WCI -14
DICKINSON      CLOUDY    -2  -8  76 E16       29.88S WCI -23
HETTINGER      CLOUDY    -2  -6  83 E15       29.86F WCI -22
$$

 *****  OTHER AIRPORT OBSERVATIONS IN OUR AREA  *****

CITY           SKY/WX    TMP DP  RH WIND       PRES   REMARKS
WALHALLA         N/A     -6  -6 100 SE6       30.31F WCI -18
GRAFTON AIRPOR FAIR      -6 -11  77 E6        30.34F WCI -18
VALLEY CITY AR CLOUDY     0  -4  85 E10       30.21F WCI -17
CANDO          CLOUDY    -2  -8  78 SE9       30.22F WCI -18
CAVALIER APRT    N/A     -4  -9  77 SE3       30.32F
GWINNER        CLOUDY     1  -4  78 E14       30.20F WCI -17
SHEYENNE NWR     N/A     -1  -9  68 E8        29.95S WCI -15
ROLLA          FAIR      -8 N/A N/A S5        30.16F WCI -19
 ***** THE ABOVE OBSERVATIONS ARE NON NWS ARE NOT QUALITY
       CONTROLLED AND MAY MIS-REPORT RAIN FOR SNOW...
$$

  *****  WEATHER ACROSS NORTHERN MINNESOTA  *****

CITY           SKY/WX    TMP DP  RH WIND       PRES   REMARKS
FLAG ISLAND    CLEAR      0  -4  85 CALM      30.31F
WARROAD        CLEAR     -4  -8  84 CALM      30.32F
ROSEAU         CLEAR     -6 -11  77 CALM      30.32F
HALLOCK        CLOUDY    -6  -9  84 CALM      30.33F
THF RVR FALLS  CLOUDY    -5  -9  83 NE5       30.31F WCI -16
BAUDETTE       CLEAR      1  -6  72 CALM      30.30F
WASKISH        CLEAR      1  -2  85 CALM      30.30F
CROOKSTON      CLOUDY    -2  -8  78 E6        30.31F WCI -14
STEPHEN NDAWN    N/A     -6  -9  84 E2          N/A
GREENBUSH NDAW   N/A     -8  -9  92 NE3         N/A
$$
  *****  WEATHER ACROSS CENTRAL AND WEST MINNESOTA  *****

CITY           SKY/WX    TMP DP  RH WIND       PRES   REMARKS
FOSSTON        CLOUDY    -8 -11  84 NE5       30.26F WCI -19
BEMIDJI        CLOUDY    -1  -8  72 SE5       30.26F WCI -11
PARK RAPIDS    CLOUDY     2  -7  66 E3        30.24F
ELBOW LAKE     FLURRIES   3  -2  78 SE9       30.24F WCI -11
WADENA         CLOUDY     1  -6  71 E6        30.23F WCI -10
DETROIT LAKES  CLOUDY     1  -4  78 E8        30.24F WCI -12
MOORHEAD       CLOUDY     1  -8  66 E7        30.28F WCI -11
FERGUS FALLS   CLOUDY     1  -4  78 E6        30.29F WCI -10
MORRIS MN      LGT SNOW   7   1  78 E12       30.21F WCI  -9
STAPLES        NOT AVBL
$$
  *****  WEATHER ELSEWHERE ACROSS MINNESOTA  *****

CITY           SKY/WX    TMP DP  RH WIND       PRES   REMARKS
DULUTH         PTCLDY     4  -5  66 NW5       30.28F WCI  -5
INTRNTL FALLS  CLEAR     -1  -7  75 CALM      30.31F
ELY            CLEAR      1  -6  71 CALM      30.29R
CLOQUET        PTCLDY     3  -6  66 CALM      30.29F
WHEATON        LGT SNOW   5   1  85 E9        30.25F WCI  -9
BRAINERD       CLOUDY     7  -2  66 S3        30.27F
HIBBING        PTCLDY    -1  -7  75 CALM      30.29F
ALEXANDRIA     CLOUDY     4  -2  76 E9        30.23F HAZE    WCI -10
SAINT CLOUD    LGT SNOW   9   2  73 E5        30.28F WCI   1
MINNEAPOLIS    LGT SNOW  11   6  81 S6        30.33F VSB 1   WCI   1
$$

  *****  WEATHER ACROSS SOUTH DAKOTA  *****

CITY           SKY/WX    TMP DP  RH WIND       PRES   REMARKS
SIOUX FALLS    LGT SNOW  16  13  88 E20       30.05F FOG     WCI  -1
BROOKINGS      LGT SNOW   9   5  85 E15       30.06F FOG     WCI  -8
WATERTOWN      SNOW       3  -2  79 E13       30.08F VSB 1/2 WCI -14
HURON          LGT SNOW  13  10  88 E12       30.07S FOG     WCI  -1
SISSETON         N/A      3  -2  79 SE9       30.20F WCI -12
ABERDEEN       LGT SNOW   6  -1  73 E14       30.12F WCI -11
MITCHELL       CLOUDY    18  14  84 SE14      30.06R WCI   4
PIERRE         CLOUDY     6   1  80 E18       29.96F WCI -13
MOBRIDGE       LGT SNOW   4  -3  73 E13       29.98F WCI -13
RAPID CITY     CLOUDY     8   2  76 E6        29.78F WCI  -2
$$

  *****  SOME WEATHER IN NEARBY STATES *****

CITY           SKY/WX    TMP DP  RH WIND       PRES   REMARKS
GLASGOW MT     HVY SNOW   2  -3  80 E16       29.83S VSB 1/4 WCI -18
GREAT FALLS MT CLOUDY     9   3  77 S7        29.71R WCI  -2
CHEYENNE WY    CLOUDY    48  27  44 W26G36    29.72F
SCOTTSBLUFF NE CLOUDY    29  19  66 SE5       29.71S WCI  24
OMAHA NE       CLOUDY    31  15  52 SE14      30.10F WCI  21
DES MOINES IA  CLOUDY    26  19  74 E10       30.22F WCI  16
DAVENPORT IA   LGT SNOW  22  19  89 SE9       30.37S VSB 1   WCI  12
CHICAGO IL     LGT SNOW  23  15  71 SW7       30.41S WCI  15
EAU CLAIRE WI  CLOUDY    13   4  67 SE6       30.34F WCI   4
LA CROSSE WI   LGT SNOW  16  11  80 SW3       30.38F
$$

  *****  SOME NATIONAL WEATHER *****

CITY           SKY/WX    TMP DP  RH WIND       PRES   REMARKS
LA GUARDIA NY  MOCLDY    36  19  50 NW13      30.38R
RALEIGH NC     PTCLDY    40  10  29 CALM      30.47S
ATLANTA GA     PTCLDY    47  14  26 S3        30.42R
NEW ORLEANS LA MOSUNNY   52  25  35 N9        30.41R
OKLAHOMA CITY  MOSUNNY   46  27  47 S23G31    30.09F
ALBUQUERQUE NM MOSUNNY   50  29  44 S6        30.08F
SALT LAKE CITY LGT RAIN  49  37  63 S13G20    29.84F
LOS ANGELES CA PTSUNNY   63  55  75 W10       30.12F HAZE
BOISE ID       FOG       34  34 100 SW3       29.85F VSB<1/4
SEATTLE WA     LGT RAIN  43  38  82 S13G22    29.83R
$$

*** WEATHER ACROSS MANITOBA...SASKATCHEWAN AND ONTARIO ***
                ***ONTARIO***

CITY           SKY/WX    TMP DP  RH WIND       PRES   REMARKS
GERALDTON      FLURRIES   3  -2  78 CALM      30.27F
THUNDER BAY    PTCLDY     7  -2  66 NW5       30.35S WCI  -2
SIOUX LOOKOUT  CRYSTALS  -4  -9  77 CALM      30.28F
TORONTO        PTCLDY    25  14  63 W15G21    30.34R WCI  12
BIG TROUT LK   CLEAR     -6 -11  77 W5        30.29F WCI -17
PICKLE LAKE    FLURRIES  -6 -11  77 W3        30.28S
DRYDEN         CLEAR     -2  -8  78 W2        30.28S
KENORA         PTCLDY    -2  -6  84 CALM      30.28F
$$
                *** MANITOBA***

CITY           SKY/WX    TMP DP  RH WIND       PRES   REMARKS
BRANDON        PTCLDY   -11 -17  77 SW3       30.23F
DAUPHIN        CLEAR     -9 -17  70 E3        30.26F
ISLAND LAKE    FLURRIES  -2  -6  84 S7        30.31S WCI -16
PILOT MOUND      N/A     -9 -13  84 S8          N/A  WCI -26
THE PAS        PTCLDY    -6 -13  71 S6        30.24F WCI -18
THOMPSON       MOCLDY    -6 -13  71 SW8       30.20F WCI -21
WINNIPEG       CLEAR     -8 -15  71 S9        30.35F WCI -25
LYNN LAKE      FLURRIES -11 -15  84 SW6       30.09S WCI -25
CHURCHILL      MOCLDY    -8 -13  77 SW10      30.13F WCI -26
GILLAM         FLURRIES   1  -4  78 SW7       30.21F WCI -11
$$
                ***SASKATCHEWAN***

CITY           SKY/WX    TMP DP  RH WIND       PRES   REMARKS
ESTEVAN        LGT SNOW  -8 -13  77 E14G20    30.05F DRFTSNOWWCI -28
KINDERSLEY     PTCLDY     1  -4  78 E12       29.90F WCI -15
LLOYDMINSTER   CRYSTALS  -6 -11  77 E9        29.99F WCI -22
PRINCE ALBERT  MOCLDY    -6 -13  71 E3        30.15S
REGINA         MOCLDY    -6 -11  77 SE14G20   30.04F WCI -26
YORKTON        CLEAR     -8 -13  77 SE6       30.16S WCI -21
N. BATTLEFORD  CLEAR     -2  -8  78 E9        30.06S WCI -18
LA RONGE       PTCLDY    -8 -15  71 W2        30.15F
SASKATOON      PTCLDY     1  -6  71 E9        30.08S WCI -14
SWIFT CURRENT  CLOUDY     3  -2  78 SE17G25   29.81S WCI -17
$$
NOTE: THESE ARE AUTOMATED STATIONS WITH LIMITED QUALITY CONTROL
      "FAIR" INDICATES FEW OR NO CLOUDS BELOW 12,000 FEET WITH NO
      SIGNIFICANT WEATHER AND/OR OBSTRUCTIONS TO VISIBILITY.
      SKY/WX - SKY CONDITION AND SIGNIFICANT WEATHER.
      TMP - AIR TEMPERATURE.    DP   - DEWPOINT TEMPERATURE.
      RH  - RELATIVE HUMIDITY.  PRES - PRESSURE.
      HX  - HEAT INDEX.         WCI  - WIND CHILL INDEX.
$



USA.gov is the U.S. government's official web portal to all federal, state and local government web resources and services.